EW3861 Weather Reports


time (UTC)temp
C
wind
direction
speed
KPH
gust
KPH
rain 1hr
cm
rain 24hr
cm
rain mn
cm
humidity
%
barometer
mb
20200531060001 17 225 0.0 4.8 0.00 0.08 0.00 66 1009.3
20200531054923 17 227 0.0 3.2 0.00 0.08 0.00 67 1009.3
20200531053139 17 227 0.0 3.2 0.00 0.08 0.00 68 1009.2
20200531051626 17 234 0.0 6.4 0.00 0.08 0.00 68 1009.2
20200531050135 17 189 0.0 3.2 0.00 0.08 0.00 68 1009.2
20200531044704 17 137 0.0 4.8 0.00 0.08 0.00 70 1009.3
20200531043400 17 251 0.0 9.7 0.00 0.08 0.00 72 1009.3
20200531041623 16 196 0.0 4.8 0.00 0.08 0.00 75 1009.3
20200531040145 16 32 0.0 4.8 0.00 0.08 0.00 78 1009.3
20200531034902 15 273 0.0 6.4 0.00 0.08 0.08 84 1009.4
20200531033122 14 252 0.0 3.2 0.00 0.08 0.08 89 1009.3
20200531031615 15 266 0.0 1.6 0.00 0.08 0.08 88 1008.4
20200531030115 15 266 0.0 0.0 0.00 0.08 0.08 87 1008.5
20200531024610 15 266 0.0 0.0 0.00 0.08 0.08 86 1008.5
20200531023113 15 266 0.0 0.0 0.00 0.08 0.08 85 1008.4
20200531021543 16 266 0.0 0.0 0.00 0.08 0.08 84 1008.6
20200531020055 16 266 0.0 0.0 0.00 0.08 0.08 83 1008.7
20200531014542 17 266 0.0 0.0 0.00 0.08 0.08 80 1008.6
20200531013028 18 266 0.0 0.0 0.00 0.08 0.08 78 1008.6
20200531011548 18 266 0.0 0.0 0.00 0.08 0.08 74 1008.6
20200531010128 19 266 0.0 0.0 0.00 0.08 0.08 72 1008.4
20200531004533 20 266 0.0 0.0 0.00 0.08 0.08 69 1008.2
20200531003022 21 266 0.0 0.0 0.00 0.08 0.08 64 1008.3
20200531001530 22 266 0.0 0.0 0.00 0.08 0.08 59 1008.2
20200531000022 23 266 0.0 0.0 0.00 0.08 0.08 55 1008.2
20200530234557 23 266 0.0 1.6 0.00 0.08 0.08 50 1008.2
20200530233031 23 266 0.0 3.2 0.00 0.08 0.08 49 1008.1
20200530231535 24 299 0.0 1.6 0.00 0.08 0.08 49 1008.0
20200530230042 24 209 0.0 6.4 0.00 0.08 0.08 48 1007.9
20200530224526 25 178 0.0 6.4 0.00 0.08 0.08 47 1007.7
20200530223053 25 277 0.0 11.3 0.00 0.08 0.08 47 1007.6
20200530221551 25 241 0.0 8.0 0.00 0.08 0.08 45 1007.5
20200530220053 26 229 0.0 11.3 0.00 0.08 0.08 45 1007.4
20200530214626 27 184 0.0 8.0 0.00 0.08 0.08 43 1007.3
20200530213043 27 231 1.6 8.0 0.00 0.08 0.08 42 1007.3
20200530211540 26 219 0.0 16.1 0.00 0.08 0.08 44 1007.3
20200530210031 27 227 3.2 11.3 0.00 0.08 0.08 43 1007.3
20200530204604 27 246 1.6 9.7 0.00 0.08 0.08 41 1007.5
20200530203048 27 219 3.2 12.9 0.00 0.08 0.08 42 1007.3
20200530201525 27 226 3.2 12.9 0.00 0.08 0.08 43 1007.3
20200530200022 27 229 1.6 12.9 0.00 0.08 0.08 45 1007.2
20200530194511 27 225 0.0 4.8 0.00 0.08 0.08 45 1007.3
20200530193022 27 197 3.2 16.1 0.00 0.08 0.08 45 1007.3
20200530191520 27 207 4.8 12.9 0.00 0.08 0.08 45 1007.3
20200530190006 27 219 4.8 14.5 0.00 0.08 0.08 48 1007.5
20200530184500 26 81 1.6 16.1 0.00 0.08 0.08 50 1007.4
20200530183155 26 219 4.8 14.5 0.00 0.08 0.08 53 1007.5
20200530181604 25 225 6.4 16.1 0.00 0.08 0.08 51 1007.7
20200530180219 25 215 1.6 12.9 0.00 0.08 0.08 56 1007.7
20200530174644 25 221 3.2 17.7 0.00 0.08 0.08 55 1007.8
20200530173134 25 236 1.6 14.5 0.00 0.08 0.08 56 1008.0
20200530171720 25 245 3.2 12.9 0.00 0.08 0.08 57 1007.9
20200530170103 25 214 3.2 9.7 0.00 0.08 0.08 58 1007.9
20200530164637 25 279 4.8 12.9 0.00 0.08 0.08 58 1008.0
20200530163135 24 273 1.6 8.0 0.00 0.08 0.08 62 1008.1
20200530161620 24 234 3.2 16.1 0.00 0.08 0.08 62 1008.3
20200530160045 23 218 4.8 16.1 0.00 0.08 0.08 63 1008.5
20200530154627 23 282 3.2 12.9 0.00 0.08 0.08 66 1008.6
20200530153139 23 245 3.2 11.3 0.00 0.08 0.08 69 1008.6
20200530151557 23 230 0.0 14.5 0.00 0.08 0.08 71 1008.7
20200530150042 22 94 0.0 9.7 0.00 0.08 0.08 74 1008.6
20200530144542 22 228 0.0 6.4 0.00 0.08 0.08 76 1008.5
20200530143054 22 189 3.2 14.5 0.00 0.08 0.08 77 1008.6
20200530141534 21 189 0.0 9.7 0.00 0.08 0.08 82 1008.6
20200530140039 21 220 1.6 9.7 0.00 0.08 0.08 87 1008.6
20200530134525 21 209 3.2 9.7 0.00 0.08 0.08 90 1008.7
20200530133017 20 291 1.6 9.7 0.00 0.08 0.08 93 1008.7
20200530131533 20 235 0.0 12.9 0.00 0.08 0.08 96 1008.7
20200530130018 20 210 3.2 12.9 0.00 0.08 0.08 97 1008.8
20200530124509 19 235 0.0 8.0 0.00 0.08 0.08 97 1008.8
20200530123006 18 217 1.6 8.0 0.00 0.08 0.08 97 1008.8
20200530121514 18 215 1.6 8.0 0.00 0.08 0.08 97 1008.8
20200530120004 18 211 0.0 6.4 0.00 0.08 0.08 97 1008.7
20200530114523 18 211 0.0 8.0 0.00 0.08 0.08 97 1008.9
20200530113005 17 224 0.0 4.8 0.00 0.08 0.08 97 1008.8
20200530111503 17 219 0.0 8.0 0.00 0.08 0.08 97 1008.6
20200530110002 17 243 0.0 4.8 0.00 0.08 0.08 97 1008.7
20200530104506 17 248 0.0 6.4 0.00 0.08 0.08 97 1008.6
20200530103001 17 215 1.6 9.7 0.00 0.08 0.08 97 1008.4
20200530101706 17 213 1.6 8.0 0.00 0.08 0.08 97 1008.4
20200530100159 17 288 0.0 6.4 0.03 0.08 0.08 97 1008.2
20200530094729 17 221 3.2 8.0 0.05 0.08 0.08 97 1007.9
20200530093139 17 245 0.0 8.0 0.05 0.08 0.08 97 1007.9
20200530091728 17 229 1.6 8.0 0.05 0.08 0.08 97 1007.7
20200530090115 18 236 0.0 9.7 0.03 0.05 0.05 97 1008.3
20200530084611 17 223 4.8 16.1 0.00 0.18 0.03 97 1008.4
20200530083154 17 227 3.2 11.3 0.00 0.18 0.03 97 1008.6
20200530081645 17 221 1.6 9.7 0.03 0.18 0.03 97 1008.5
20200530080103 17 213 3.2 8.0 0.03 0.18 0.03 97 1008.3
20200530074739 17 215 1.6 11.3 0.03 0.23 0.03 96 1008.6
20200530073125 17 215 4.8 11.3 0.03 0.23 0.03 96 1008.8
20200530071720 18 212 4.8 11.3 0.00 0.20 0.00 96 1009.3
20200530070147 17 208 1.6 12.9 0.00 0.20 0.00 96 1009.6
20200530064711 18 218 3.2 11.3 0.00 0.20 0.00 96 1009.5
20200530063121 18 238 6.4 16.1 0.00 0.20 0.00 96 1009.6
20200530061629 18 220 3.2 16.1 0.00 0.20 0.00 96 1009.8